STARLINK-2661, 48469

Orbit data source: Space-Track

STARLINK-2661, 48469 is a payload satellite owned by SpaceX/Seattle (US) in LEO that was launched on Sun, 09 May 2021 UTC via an FALCON 9 launch vehicle from the Air Force Eastern Test Range (AFETR). Payload-class satellites include a variety of spacecraft equipped with specific instruments for various scientific and technological missions. These include communications satellites like Starlink; space stations such as the ISS; scientific satellites like the Hubble; Earth observation satellites from companies like Planet Labs, Umbra, and HawkEye 360; GPS; miniature CubeSats for education and research; and military/defense satellites.

Loading next visibility...
Identifier
48469, 2021-040AT
Orbit
LEO
Country
Flag of USUS
Related business
Manufacturer
SpaceX/Seattle
Mission
Operational Commercial Communications
Bus & Motor
STARLINK, Unknown motor
Mass
260 kg wet, ~248 kg dry
Launch date (UTC)
2021-05-09 (5 years ago)
Launch vehicle
FALCON 9
Launch site
Air Force Eastern Test Range (AFETR)
Object type
Payload
Rocket body
Debris
Shape & HBR
Box + 1 Pan, 10.1 m
Radar Cross Section
13.562 m², Large (>1 m²)

Expand to show TLE details & history
Last TLE update: 2 days ago

TLE from 2 days ago
0 STARLINK-2661
1 48469U 21040AT  26170.95521781  .00001115  00000-0  47687-4 0  9996
2 48469  53.1587  75.4199 0001072  91.4346 268.6778 15.31704376282175
Epoch: 2026-06-19T22:55Z
TLE epoch observation values (Epoch: 2026-06-19T22:55:30.818Z)
Latitude
-0.00005°
Longitude
-176.63532°
Altitude
471.644 km
Speed
7.631 km/s
True Right ascension
05h 01m 40s
True Declination
0° 00' 00"
Sunlit
Object was in daylight at epoch
Visualization orbit readout
Latitude
Unknown
Longitude
Unknown
Altitude
Unknown
Speed
Unknown
Apparent Right ascension
Unknown
Apparent Declination
Unknown
Sunlit
N/A
Visualization observer readout
Local Sidereal Time
21:23:27
Azimuth
Unknown
Elevation
Unknown
Doppler factor
Unknown
Orbital elements
Apogee altitude
471.718 km
Perigee altitude
470.25 km
Semi-major axis
6,849.121 km
Eccentricity
0.00011
Inclination
53.1587°
RAAN
75.4199°
Arg. of periapsis
91.4346°
True anomaly
268.66552°
Mean anomaly
268.6778°
Eccentric anomaly
268.67166°
Mean motion
3.82905 °/min
Orbital period
94.02 mins
BSTAR
0.000047687
Loading maneuver chart data...
Computing Atmospheric mass density...

Documentation

Showing up to 5 results
|